Regional Weather Roundup
Issued by NWS Portland, ME

Home | Current Version | Previous Version | Text Only | Print | Product List | Glossary On
Versions: 1 2 3 4 5 6 7 8 9 10 11 12 13 14 15 16 17 18 19 20 21 22 23 24 25 26 27 28 29 30 31 32 33 34 35 36 37 38 39 40 41 42 43 44 45 46 47 48 49 50
376
ASUS41 KGYX 230210
RWRGYX
WEATHER ROUNDUP FOR MAINE AND NEW HAMPSHIRE
NATIONAL WEATHER SERVICE GRAY ME
1000 PM EDT WED MAR 22 2017

MEZ002-005-006-010-012-015-018-020-021-024-026-027-029-230300-
MAINE

CITY           SKY/WX    TMP DP  RH WIND       PRES   REMARKS
PORTLAND       CLEAR     17  -5  37 NW16G36   30.20R WCI   2
SANFORD        CLEAR     13  -4  46 W7        30.22R
WISCASSET      CLEAR     16  -6  37 VRB7      30.18R
ROCKLAND       CLEAR     15  -5  40 NW14G25   30.11R WCI   0
FRYEBURG       CLEAR     13  -7  40 SW6       30.20R
LEWISTONAUBURN CLEAR     15  -3  44 NW24G41   30.17R WCI  -4
AUGUSTA        CLEAR     13  -8  39 NW15G25   30.15R WCI  -3
WATERVILLE     CLEAR     13  -7  40 NW17      30.12R WCI  -4
BANGOR         CLEAR     15  -3  44 NW22G33   30.09R WCI  -3
GREENVILLE       N/A      7  -7  52 NW24G35   29.99R WCI -14
MILLINOCKET    CLEAR     11  -6  46 NW13      30.09R WCI  -4
HOULTON        CLEAR     11  -4  51 N15G28    30.00R WCI  -5
PRESQUE ISLE   CLEAR      9  -4  55 NW12G21   30.06R WCI  -6
FRENCHVILLE    CLEAR      7  -9  48 NW22G36   30.02R WCI -14
CARIBOU        CLEAR     10  -6  48 NW17G25   30.03R WCI  -8
$$

NHZ002-005-008-009-011-012-014-230300-
NEW HAMPSHIRE

CITY           SKY/WX    TMP DP  RH WIND       PRES   REMARKS
PORTSMOUTH     CLEAR     16  -5  38 NW16G28   30.23R WCI   0
ROCHESTER      CLEAR     15  -5  40 NW22G32   30.19R WCI  -3
NASHUA         CLEAR     18  -4  37 NW18G31   30.29R WCI   2
MANCHESTER     CLEAR     17  -7  34 NW24G35   30.27R WCI  -1
CONCORD        CLEAR     15  -4  42 NW25G32   30.27R WCI  -4
LACONIA        CLEAR     13  -4  46 NW10G17   30.26R WCI   0
PLYMOUTH       FAIR      14  -5  43 NW15G26   30.28R WCI  -1
BERLIN         CLEAR     12  -7  42 NW16G26   30.18R WCI  -5
WHITEFIELD     PTCLDY     9  -7  48 W6        30.26R
JAFFREY        CLEAR     15 -11  30 NW9       30.24R
KEENE          CLEAR     16  -4  41 N7        30.32R
LEBANON        CLEAR     15  -4  42 N12       30.32R WCI   2
MT WASHINGTON  BLWGSNOW -15 -15 100 NW78G92     N/A  VSB 1/16WCI -58
$$

VTZ005-007-008-230300-
VERMONT

CITY           SKY/WX    TMP DP  RH WIND       PRES   REMARKS
ST JOHNSBURY     N/A     12  -5  46 MISG      30.30R
MONTPELIER     CLEAR     10  -5  50 VRB3      30.33R
BURLINGTON     CLEAR     16  -2  45 NW7       30.41R
$$

MAZ007-012-024-CTZ003-RIZ002-NYZ038-NYZ072-230300-
SOUTHERN NEW ENGLAND AND NY

CITY           SKY/WX    TMP DP  RH WIND       PRES   REMARKS
BOSTON         CLEAR     20  -7  30 NW23G35   30.27R WCI   3
WORCESTER      CLEAR     16  -9  32 NW13G29   30.22R WCI   2
NANTUCKET      CLEAR     24  -3  30 NW22G36   30.20R WCI   9
PROVIDENCE     CLEAR     23 -12  21 NW14G35   30.28R WCI  11
HARTFORD       CLEAR     22  -8  26 NW15G24   30.34R WCI   9
ALBANY         CLEAR     20  -4  34 NW16G23   30.42R WCI   6
NEW YORK CITY  CLEAR     29   0  28 N18G26    30.42R WCI  16
$$

ANZ081-ANZ082-ANZ150-NHZ014-MEZ023>029-230300-
COASTAL MARINE OBSERVATIONS

STATION/POSITION TIME  TEMP    WIND        PRES    WAVE
                       AIR SEA DIR/SP/G            HT/PER
                 (UTC) (F)     (DEG/KT/KT) (MB)    (FT/S)
MOUNT DESERT ROC 0200   20                 1016.2R
MATINICUS ROCK   0200   18     320/ 38/ 46 1018.4R
ISLE OF SHOALS   0200   18     310/ 29/ 34 1023.0R
JEFFREYS LEDGE   0106      41                N/A     9/ 6
CASHES LEDGE BUO 0150   20 38              1019.7R  12/ 8
GEORGES BANK BUO 0150   31 41              1015.4R  13/10
$$

.............KEY..............
   WCI - WIND CHILL
   TC  - TEMPERATURE IN CELSIUS
   VSB - VISIBILITY IN MILES
   HX  - HEAT INDEX
   FAIR- INDICATES FEW OR NO CLOUDS BELOW 12,000 FT, WITH NO
         SIGNIFICANT WEATHER AND/OR OBSTRUCTIONS TO VISIBILITY.






USA.gov is the U.S. government's official web portal to all federal, state and local government web resources and services.